Russellville, AR

4:32 AM CST on December 15, 2019 (GMT -0600)
Russellville Regional

Weather History for KRUE - August, 2019

Change the Weather History Date:

Saturday, August 17, 2019

  Actual Average (KHOT) Record (KHOT)
Temperature  
Mean Temperature 82 °F -  
Max Temperature 95 °F 93 °F 105 °F (1952)
Min Temperature 70 °F 69 °F 53 °F (1992)
Cooling Degree Days 16    
Growing Degree Days 32 (Base 50)    
Moisture  
Dew Point 70 °F    
Average Humidity 66    
Maximum Humidity 90    
Minimum Humidity 44    
Precipitation  
Precipitation 0.00 in - - ()
Sea Level Pressure  
Sea Level Pressure 29.87 in    
Wind  
Wind Speed 1 mph (East)    
Max Wind Speed 9 mph    
Max Gust Speed -    
Visibility 10 miles    
Events      
Averages and records for this station are not official NWS values.
T = Trace of Precipitation, MM = Missing Value Source: NWS Daily Summary

Daily Weather History Graph

Daily Weather History Graph

Search for Another Location

Airport or City:

Astronomy

Aug. 17, 2019 Rise Set
Actual Time 6:33 AM CDT 7:58 PM CDT
Civil Twilight 6:06 AM CDT 8:25 PM CDT
Nautical Twilight 5:34 AM CDT 8:57 PM CDT
Astronomical Twilight 5:00 AM CDT 9:31 PM CDT
Moon 9:30 PM CDT (8/17) 8:20 AM CDT (8/17)
Length of Visible Light 14h 19m
Length of Day
13h 25m
Waning Gibbous, 96% of the Moon is Illuminated
Aug 17
Waning Gibbous
Aug 23
Last Quarter
Aug 30
New
Sep 5
First Quarter
Sep 13
Full

Hourly Weather History & Observations

Time (CDT) Temp. Heat Index Dew Point Humidity Pressure Visibility Wind Dir Wind Speed Gust Speed Precip Events Conditions
12:53 AM 73.0 °F - 69.1 °F 87% 29.90 in 10.0 mi Calm Calm - N/A   Clear
1:53 AM 73.0 °F - 66.9 °F 81% 29.89 in 10.0 mi Calm Calm - N/A   Clear
2:53 AM 73.9 °F - 66.9 °F 79% 29.87 in 10.0 mi ESE 3.5 mph - N/A   Clear
3:53 AM 73.0 °F - 66.9 °F 81% 29.87 in 10.0 mi Calm Calm - N/A   Clear
4:53 AM 72.0 °F - 66.9 °F 84% 29.88 in 10.0 mi Calm Calm - N/A   Clear
5:53 AM 71.1 °F - 66.9 °F 87% 29.90 in 10.0 mi Calm Calm - N/A   Clear
6:53 AM 70.0 °F - 66.9 °F 90% 29.91 in 10.0 mi Calm Calm - N/A   Clear
7:53 AM 75.9 °F - 70.0 °F 82% 29.92 in 10.0 mi Calm Calm - N/A   Clear
8:53 AM 81.0 °F 84.1 °F 69.1 °F 67% 29.92 in 10.0 mi Calm Calm - N/A   Clear
9:53 AM 84.9 °F 90.1 °F 71.1 °F 63% 29.91 in 10.0 mi Variable 3.5 mph - N/A   Clear
10:53 AM 88.0 °F 94.7 °F 72.0 °F 59% 29.92 in 10.0 mi Calm Calm - N/A   Clear
11:53 AM 90.0 °F 96.4 °F 71.1 °F 54% 29.93 in 10.0 mi Calm Calm - N/A   Clear
12:53 PM 93.0 °F 99.0 °F 70.0 °F 47% 29.91 in 10.0 mi Calm Calm - N/A   Clear
1:53 PM 93.9 °F 100.8 °F 71.1 °F 47% 29.87 in 10.0 mi Calm Calm - N/A   Partly Cloudy
2:53 PM 93.9 °F 103.4 °F 73.0 °F 51% 29.86 in 10.0 mi ENE 8.1 mph - N/A   Clear
3:53 PM 93.9 °F 103.4 °F 73.0 °F 51% 29.83 in 10.0 mi Variable 4.6 mph - N/A   Clear
4:53 PM 93.9 °F 100.8 °F 71.1 °F 47% 29.82 in 10.0 mi East 9.2 mph - N/A   Clear
5:53 PM 93.0 °F 99.0 °F 70.0 °F 47% 29.81 in 10.0 mi East 8.1 mph - N/A   Mostly Cloudy
6:53 PM 91.9 °F 95.4 °F 66.9 °F 44% 29.81 in 10.0 mi SE 3.5 mph - N/A   Partly Cloudy
7:53 PM 88.0 °F 92.1 °F 69.1 °F 53% 29.82 in 10.0 mi Calm Calm - N/A   Clear
8:53 PM 82.9 °F 87.0 °F 70.0 °F 65% 29.83 in 10.0 mi Calm Calm - N/A   Clear
9:53 PM 82.9 °F 87.0 °F 70.0 °F 65% 29.85 in 10.0 mi Calm Calm - N/A   Clear
10:53 PM 79.0 °F - 70.0 °F 74% 29.86 in 10.0 mi Calm Calm - N/A   Clear
11:53 PM 80.1 °F 83.2 °F 70.0 °F 71% 29.87 in 10.0 mi Calm Calm - N/A   Clear